Location: Mound City (historical)
(34.0564°N, 117.2656°W)
Time: 02:24:44
(UTC+00:00)

Cosmos 1500 - Pass Details

Date: 08 September 2024
Orbit: 412 x 429 km, 82.5° (Epoch: 10 October)

Event Time Altitude Azimuth Distance (km) Brightness Sun altitude
Rises 12:01:35 0° 349° (N) 2,396 6.7 -18.2°
Reaches altitude 10° 12:03:40 10° 346° (NNW) 1,519 5.6 -17.8°
Maximum altitude 12:06:55 61° 265° (W) 482 2.7 -17.1°
Enters shadow 12:08:28 27° 194° (SSW) 834 3.9 -16.8°
